Location: Baia Mare
(47.6567°N, 23.5850°E)
Time: 19:22:33
(UTC+03:00)

ISS - Pass Details

Date: 03 October 2018
Orbit: 403 x 408 km, 51.6° (Epoch: 23 October)

Event Time Altitude Azimuth Distance (km) Brightness Sun altitude
Rises 19:55:46 0° 283° (WNW) 2,339 2.2 -10.0°
Reaches altitude 10° 19:57:57 10° 291° (WNW) 1,477 0.4 -10.3°
Maximum altitude 20:01:05 39° 2° (N) 626 -2.9 -10.9°
Enters shadow 20:03:28 16° 68° (ENE) 1,188 -2.0 -11.3°
